FW7254 Weather Reports


time (UTC)temp
C
wind
direction
speed
KPH
gust
KPH
rain 1hr
cm
rain 24hr
cm
rain mn
cm
humidity
%
barometer
mb
20260502130311 19 98 0.0 0.0 0.00 0.00 0.00 52 1011.0
20260502123319 20 98 0.0 0.0 0.00 0.00 0.00 53 1010.8
20260502121825 20 98 0.0 0.0 0.00 0.00 0.00 50 1010.6
20260502120355 20 98 0.0 0.0 0.00 0.00 0.00 46 1010.4
20260502114859 20 98 0.0 0.0 0.00 0.00 0.00 43 1010.2
20260502113315 21 98 0.0 0.0 0.00 0.00 0.00 43 1009.8
20260502111822 21 98 0.0 0.0 0.00 0.00 0.00 43 1009.6
20260502110328 21 98 0.0 0.0 0.00 0.00 0.00 45 1009.3
20260502104832 21 98 0.0 0.0 0.00 0.00 0.00 42 1009.0
20260502103331 22 98 0.0 0.0 0.00 0.00 0.00 41 1008.9
20260502101824 22 98 0.0 0.0 0.00 0.00 0.00 39 1008.8
20260502100321 22 98 0.0 0.0 0.00 0.00 0.00 38 1008.7
20260502090324 24 98 0.0 0.0 0.00 0.00 0.00 31 1007.9
20260502070320 26 96 0.0 0.0 0.00 0.00 0.00 31 1006.3
20260502064834 27 91 0.0 0.0 0.00 0.00 0.00 31 1006.1
20260502063334 27 91 0.0 0.0 0.00 0.00 0.00 31 1005.9
20260502061813 27 88 0.0 0.0 0.00 0.00 0.00 32 1005.7
20260502060318 27 59 0.0 0.0 0.00 0.00 0.00 33 1005.6
20260502054824 27 59 0.0 0.0 0.00 0.00 0.00 34 1005.5
20260502053349 27 61 0.0 0.0 0.00 0.00 0.00 35 1005.3
20260502051836 27 51 0.0 0.0 0.00 0.00 0.00 36 1005.3
20260502050318 27 51 0.0 0.0 0.00 0.00 0.00 30 1005.1
20260502044826 27 106 3.2 0.0 0.00 0.00 0.00 31 1005.0
20260502043331 27 42 0.0 0.0 0.00 0.00 0.00 36 1005.0
20260502041840 26 106 0.0 0.0 0.00 0.00 0.00 35 1004.7
20260502040317 27 105 0.0 0.0 0.00 0.00 0.00 36 1004.7
20260502034824 27 304 1.6 0.0 0.00 0.00 0.00 34 1004.7
20260502033350 27 163 0.0 0.0 0.00 0.00 0.00 31 1004.6
20260502031813 27 163 0.0 0.0 0.00 0.00 0.00 33 1004.4
20260502030319 26 161 0.0 0.0 0.00 0.00 0.00 34 1004.1
20260502024847 26 126 0.0 0.0 0.00 0.00 0.00 36 1004.0
20260502023314 26 132 0.0 0.0 0.00 0.00 0.00 34 1003.9
20260502021841 25 127 0.0 0.0 0.00 0.00 0.00 36 1003.8
20260502020327 25 141 0.0 0.0 0.00 0.00 0.00 37 1003.7
20260502014826 25 133 0.0 0.0 0.00 0.00 0.00 38 1003.6
20260502013316 24 132 0.0 0.0 0.00 0.00 0.00 41 1003.6
20260502011824 23 173 0.0 0.0 0.00 0.00 0.00 43 1003.6
20260502010349 23 177 0.0 0.0 0.00 0.00 0.00 46 1003.5
20260502004837 23 120 0.0 0.0 0.00 0.00 0.00 47 1003.5
20260502003334 22 122 0.0 0.0 0.00 0.00 0.00 49 1003.3
20260502001827 22 113 0.0 0.0 0.00 0.00 0.00 51 1003.1
20260502000325 21 109 1.6 0.0 0.00 0.00 0.00 51 1002.8
20260501234859 21 105 1.6 0.0 0.00 0.00 0.00 55 1003.1
20260501233315 20 145 0.0 0.0 0.00 0.00 0.00 56 1002.8
20260501231822 18 148 0.0 0.0 0.00 0.00 0.00 59 1002.8
20260501230329 17 164 0.0 0.0 0.00 0.00 0.00 63 1002.6
20260501224836 17 263 0.0 0.0 0.00 0.00 0.00 68 1002.0
20260501223315 16 264 0.0 0.0 0.00 0.00 0.00 70 1001.8
20260501221819 16 264 0.0 0.0 0.00 0.00 0.00 74 1001.8
20260501220330 15 264 0.0 0.0 0.00 0.00 0.00 75 1001.5
20260501214835 13 264 0.0 0.0 0.00 0.00 0.00 82 1001.1
20260501213313 12 264 0.0 0.0 0.00 0.00 0.00 83 1000.6
20260501211822 12 264 0.0 0.0 0.00 0.00 0.00 83 1000.2
20260501210327 12 264 0.0 0.0 0.00 0.00 0.00 83 1000.0
20260501204835 12 264 0.0 0.0 0.00 0.00 0.00 82 999.7
20260501203339 12 264 0.0 0.0 0.00 0.00 0.00 81 999.2
20260501201820 12 264 0.0 0.0 0.00 0.00 0.00 82 998.9
20260501200324 12 264 0.0 0.0 0.00 0.00 0.00 81 998.6
20260501194852 12 264 0.0 0.0 0.00 0.00 0.00 81 998.0
20260501193313 12 264 0.0 0.0 0.00 0.00 0.00 80 998.2
20260501191820 12 264 0.0 0.0 0.00 0.00 0.00 78 997.8
20260501190346 13 264 0.0 0.0 0.00 0.00 0.00 77 997.5
20260501184831 13 264 0.0 0.0 0.00 0.00 0.00 76 996.9
20260501183317 13 264 0.0 0.0 0.00 0.00 0.00 75 996.4
20260501181822 13 264 0.0 0.0 0.00 0.00 0.00 74 995.6
20260501180328 13 265 0.0 0.0 0.00 0.00 0.00 73 995.3
20260501174817 14 264 0.0 0.0 0.00 0.00 0.00 73 995.3
20260501173322 14 265 0.0 0.0 0.00 0.00 0.00 72 995.0
20260501171830 14 274 1.6 0.0 0.00 0.00 0.00 72 994.7
20260501170328 14 240 4.8 0.0 0.00 0.00 0.00 72 994.5
20260501164816 14 136 3.2 0.0 0.00 0.00 0.00 73 994.3
20260501163323 14 302 3.2 0.0 0.00 0.00 0.00 74 994.4
20260501161818 13 225 1.6 0.0 0.00 0.00 0.00 75 994.2
20260501160324 13 250 0.0 0.0 0.00 0.00 0.00 80 994.4
20260501154831 13 250 0.0 0.0 0.00 0.00 0.00 85 994.4
20260501153318 13 250 0.0 0.0 0.00 0.00 0.00 87 994.7
20260501151830 13 250 0.0 0.0 0.00 0.00 0.00 88 994.7
20260501150337 13 250 0.0 0.0 0.00 0.00 4.90 87 994.8
20260501144816 13 250 0.0 0.0 0.00 0.00 4.90 86 994.7
20260501143323 14 250 0.0 0.0 0.00 0.00 4.90 85 994.4